| time (UTC) | temp C | wind direction | speed KPH | gust KPH | rain 1hr cm | rain 24hr cm | rain mn cm | humidity % | barometer mb |
| 20260503050056 | 19 | 32 | 3.2 | 16.1 | 0.00 | 0.00 | 0.00 | 28 | 1015.9 |
| 20260503044555 | 18 | 157 | 16.1 | 37.0 | 0.00 | 0.00 | 0.00 | 29 | 1016.0 |
| 20260503043056 | 18 | 193 | 12.9 | 29.0 | 0.00 | 0.00 | 0.00 | 33 | 1015.8 |
| 20260503041552 | 17 | 140 | 3.2 | 6.4 | 0.00 | 0.00 | 0.00 | 34 | 1015.6 |
| 20260503040057 | 19 | 87 | 1.6 | 20.9 | 0.00 | 0.00 | 0.00 | 29 | 1015.1 |
| 20260503034558 | 19 | 193 | 9.7 | 19.3 | 0.00 | 0.00 | 0.00 | 29 | 1015.0 |
| 20260503033050 | 18 | 181 | 12.9 | 27.4 | 0.00 | 0.00 | 0.00 | 31 | 1014.9 |
| 20260503031549 | 18 | 146 | 14.5 | 24.1 | 0.00 | 0.00 | 0.00 | 32 | 1014.6 |
| 20260503030124 | 18 | 231 | 12.9 | 30.6 | 0.00 | 0.00 | 0.00 | 35 | 1014.4 |
| 20260503024554 | 18 | 166 | 19.3 | 37.0 | 0.00 | 0.00 | 0.00 | 33 | 1014.3 |
| 20260503023050 | 18 | 210 | 3.2 | 9.7 | 0.00 | 0.00 | 0.00 | 31 | 1014.8 |
| 20260503021602 | 18 | 180 | 3.2 | 9.7 | 0.00 | 0.00 | 0.00 | 30 | 1014.6 |
| 20260503020054 | 18 | 136 | 0.0 | 4.8 | 0.00 | 0.00 | 0.00 | 29 | 1014.4 |
| 20260503014605 | 18 | 121 | 1.6 | 11.3 | 0.00 | 0.00 | 0.00 | 29 | 1014.2 |
| 20260503013052 | 18 | 120 | 9.7 | 33.8 | 0.00 | 0.00 | 0.00 | 30 | 1014.5 |
| 20260503011558 | 18 | 160 | 22.5 | 33.8 | 0.00 | 0.00 | 0.00 | 33 | 1015.0 |
| 20260503010105 | 19 | 202 | 25.7 | 53.1 | 0.00 | 0.00 | 0.00 | 32 | 1014.9 |
| 20260503004549 | 21 | 172 | 20.9 | 33.8 | 0.00 | 0.00 | 0.00 | 25 | 1014.6 |
| 20260503003059 | 21 | 174 | 14.5 | 22.5 | 0.00 | 0.00 | 0.00 | 22 | 1014.3 |
| 20260503001552 | 21 | 180 | 19.3 | 41.8 | 0.00 | 0.00 | 0.00 | 21 | 1014.2 |
| 20260503000056 | 22 | 215 | 17.7 | 33.8 | 0.00 | 0.00 | 0.00 | 20 | 1013.9 |
| 20260502234551 | 22 | 182 | 16.1 | 24.1 | 0.00 | 0.00 | 0.00 | 20 | 1013.9 |
| 20260502233053 | 22 | 0 | 1.6 | 14.5 | 0.00 | 0.00 | 0.00 | 21 | 1014.0 |
| 20260502231550 | 22 | 268 | 9.7 | 14.5 | 0.00 | 0.00 | 0.00 | 21 | 1014.1 |
| 20260502230050 | 22 | 268 | 9.7 | 12.9 | 0.00 | 0.00 | 0.00 | 21 | 1014.3 |
| 20260502224549 | 22 | 0 | 0.0 | 6.4 | 0.00 | 0.00 | 0.00 | 21 | 1014.5 |
| 20260502223054 | 22 | 93 | 1.6 | 12.9 | 0.00 | 0.00 | 0.00 | 21 | 1014.7 |
| 20260502221549 | 22 | 0 | 8.0 | 16.1 | 0.00 | 0.00 | 0.00 | 21 | 1014.9 |
| 20260502220055 | 22 | 82 | 11.3 | 16.1 | 0.00 | 0.00 | 0.00 | 20 | 1014.9 |
| 20260502214556 | 22 | 113 | 1.6 | 17.7 | 0.00 | 0.00 | 0.00 | 20 | 1015.0 |
| 20260502213050 | 22 | 215 | 6.4 | 14.5 | 0.00 | 0.00 | 0.00 | 20 | 1015.0 |
| 20260502211551 | 22 | 204 | 4.8 | 17.7 | 0.00 | 0.00 | 0.00 | 20 | 1015.2 |
| 20260502210049 | 22 | 177 | 12.9 | 20.9 | 0.00 | 0.00 | 0.00 | 18 | 1015.2 |
| 20260502204602 | 22 | 298 | 6.4 | 11.3 | 0.00 | 0.00 | 0.00 | 20 | 1015.2 |
| 20260502203113 | 22 | 340 | 0.0 | 11.3 | 0.00 | 0.00 | 0.00 | 20 | 1015.1 |
| 20260502201551 | 23 | 0 | 0.0 | 11.3 | 0.00 | 0.00 | 0.00 | 19 | 1015.2 |
| 20260502200046 | 22 | 56 | 1.6 | 11.3 | 0.00 | 0.00 | 0.00 | 19 | 1015.4 |
| 20260502194556 | 23 | 0 | 0.0 | 9.7 | 0.00 | 0.00 | 0.00 | 18 | 1015.5 |
| 20260502193050 | 22 | 0 | 0.0 | 8.0 | 0.00 | 0.00 | 0.00 | 17 | 1015.7 |
| 20260502191555 | 21 | 0 | 0.0 | 3.2 | 0.00 | 0.00 | 0.00 | 17 | 1016.0 |
| 20260502190047 | 21 | 156 | 1.6 | 11.3 | 0.00 | 0.00 | 0.00 | 16 | 1016.1 |
| 20260502184551 | 20 | 127 | 4.8 | 9.7 | 0.00 | 0.00 | 0.00 | 16 | 1016.1 |
| 20260502183050 | 20 | 84 | 4.8 | 9.7 | 0.00 | 0.00 | 0.00 | 16 | 1016.3 |
| 20260502181605 | 21 | 0 | 1.6 | 6.4 | 0.00 | 0.00 | 0.00 | 17 | 1016.1 |
| 20260502163053 | 17 | 105 | 0.0 | 1.6 | 0.00 | 0.00 | 0.00 | 22 | 1016.6 |
| 20260502161557 | 15 | 0 | 0.0 | 3.2 | 0.00 | 0.00 | 0.00 | 26 | 1016.6 |
| 20260502151602 | 13 | 0 | 0.0 | 4.8 | 0.00 | 0.00 | 0.00 | 27 | 1016.3 |
| 20260502123053 | 6 | 0 | 3.2 | 4.8 | 0.00 | 0.00 | 0.00 | 43 | 1015.6 |
| 20260502121553 | 6 | 0 | 0.0 | 3.2 | 0.00 | 0.00 | 0.00 | 40 | 1015.7 |
| 20260502114556 | 6 | 0 | 0.0 | 0.0 | 0.00 | 0.00 | 0.00 | 41 | 1015.8 |
| 20260502113052 | 7 | 180 | 0.0 | 3.2 | 0.00 | 0.00 | 0.00 | 39 | 1015.8 |
| 20260502111551 | 7 | 0 | 0.0 | 0.0 | 0.00 | 0.00 | 0.00 | 40 | 1015.7 |
| 20260502110100 | 6 | 0 | 0.0 | 1.6 | 0.00 | 0.00 | 0.00 | 41 | 1015.6 |
| 20260502104552 | 7 | 0 | 0.0 | 0.0 | 0.00 | 0.00 | 0.00 | 39 | 1015.5 |
| 20260502103048 | 6 | 0 | 0.0 | 0.0 | 0.00 | 0.00 | 0.00 | 39 | 1015.5 |
| 20260502101551 | 6 | 0 | 0.0 | 0.0 | 0.00 | 0.00 | 0.00 | 39 | 1015.6 |
| 20260502080103 | 11 | 22 | 0.0 | 1.6 | 0.00 | 0.00 | 0.00 | 29 | 1016.3 |
| 20260502070055 | 12 | 234 | 0.0 | 3.2 | 0.00 | 0.00 | 0.00 | 26 | 1016.1 |
| 20260502064557 | 12 | 0 | 0.0 | 4.8 | 0.00 | 0.00 | 0.00 | 27 | 1016.2 |
| 20260502063054 | 12 | 166 | 4.8 | 6.4 | 0.00 | 0.00 | 0.00 | 27 | 1016.2 |
| 20260502061553 | 12 | 171 | 4.8 | 6.4 | 0.00 | 0.00 | 0.00 | 25 | 1016.1 |
| 20260502060048 | 11 | 0 | 0.0 | 8.0 | 0.00 | 0.00 | 0.00 | 26 | 1016.3 |
| 20260502054558 | 12 | 0 | 1.6 | 6.4 | 0.00 | 0.00 | 0.00 | 26 | 1016.3 |
| 20260502053050 | 12 | 0 | 0.0 | 0.0 | 0.00 | 0.00 | 0.00 | 26 | 1016.4 |
| 20260502051551 | 13 | 0 | 0.0 | 3.2 | 0.00 | 0.00 | 0.00 | 24 | 1016.4 |